Year,Month,Day,Hour,Minute,Value (Times are PST for temperature in C)
2017,09,25,00,00,13.40
2017,09,25,00,01,13.40
2017,09,25,00,02,13.40
2017,09,25,00,03,13.40
2017,09,25,00,04,13.40
2017,09,25,00,05,13.40
2017,09,25,00,06,13.40
2017,09,25,00,07,13.40
2017,09,25,00,08,13.40
2017,09,25,00,09,13.40
2017,09,25,00,10,13.40
2017,09,25,00,11,13.40
2017,09,25,00,12,13.40
2017,09,25,00,13,13.40
2017,09,25,00,14,13.40
2017,09,25,00,15,13.40
2017,09,25,00,16,13.40
2017,09,25,00,17,13.40
2017,09,25,00,18,13.40
2017,09,25,00,19,13.40
2017,09,25,00,20,13.40
2017,09,25,00,21,13.40
2017,09,25,00,22,13.40
2017,09,25,00,23,13.40
2017,09,25,00,24,13.40
2017,09,25,00,25,13.40
2017,09,25,00,26,13.40
2017,09,25,00,27,13.40
2017,09,25,00,28,13.40
2017,09,25,00,29,13.40
2017,09,25,00,30,13.30
2017,09,25,00,31,13.30
2017,09,25,00,32,13.30
2017,09,25,00,33,13.30
2017,09,25,00,34,13.30
2017,09,25,00,35,13.30
2017,09,25,00,36,13.30
2017,09,25,00,37,13.30
2017,09,25,00,38,13.30
2017,09,25,00,39,13.30
2017,09,25,00,40,13.30
2017,09,25,00,41,13.30
2017,09,25,00,42,13.30
2017,09,25,00,43,13.30
2017,09,25,00,44,13.30
2017,09,25,00,45,13.30
2017,09,25,00,46,13.30
2017,09,25,00,47,13.30
2017,09,25,00,48,13.30
2017,09,25,00,49,13.30
2017,09,25,00,50,13.30
2017,09,25,00,51,13.30
2017,09,25,00,52,13.30
2017,09,25,00,53,13.30
2017,09,25,00,54,13.30
2017,09,25,00,55,13.30
2017,09,25,00,56,13.30
2017,09,25,00,57,13.30
2017,09,25,00,58,13.40
2017,09,25,00,59,13.40
2017,09,25,01,00,13.40
2017,09,25,01,01,13.40
2017,09,25,01,02,13.40
2017,09,25,01,03,13.40
2017,09,25,01,04,13.40
2017,09,25,01,05,13.40
2017,09,25,01,06,13.50
2017,09,25,01,07,13.50
2017,09,25,01,08,13.50
2017,09,25,01,09,13.50
2017,09,25,01,10,13.50
2017,09,25,01,11,13.50
2017,09,25,01,12,13.50
2017,09,25,01,13,13.60
2017,09,25,01,14,13.60
2017,09,25,01,15,13.60
2017,09,25,01,16,13.60
2017,09,25,01,17,13.50
2017,09,25,01,18,13.50
2017,09,25,01,19,13.50
2017,09,25,01,20,13.50
2017,09,25,01,21,13.50
2017,09,25,01,22,13.50
2017,09,25,01,23,13.50
2017,09,25,01,24,13.50
2017,09,25,01,25,13.50
2017,09,25,01,26,13.50
2017,09,25,01,27,13.50
2017,09,25,01,28,13.50
2017,09,25,01,29,13.50
2017,09,25,01,30,13.50
2017,09,25,01,31,13.50
2017,09,25,01,32,13.50
2017,09,25,01,33,13.60
2017,09,25,01,34,13.60
2017,09,25,01,35,13.60
2017,09,25,01,36,13.60
2017,09,25,01,37,13.60
2017,09,25,01,38,13.60
2017,09,25,01,39,13.60
2017,09,25,01,40,13.60
2017,09,25,01,41,13.60
2017,09,25,01,42,13.60
2017,09,25,01,43,13.60
2017,09,25,01,44,13.60
2017,09,25,01,45,13.60
2017,09,25,01,46,13.60
2017,09,25,01,47,13.60
2017,09,25,01,48,13.60
2017,09,25,01,49,13.60
2017,09,25,01,50,13.60
2017,09,25,01,51,13.60
2017,09,25,01,52,13.60
2017,09,25,01,53,13.60
2017,09,25,01,54,13.60
2017,09,25,01,55,13.60
2017,09,25,01,56,13.60
2017,09,25,01,57,13.60
2017,09,25,01,58,13.60
2017,09,25,01,59,13.60
2017,09,25,02,00,13.60
2017,09,25,02,01,13.60
2017,09,25,02,02,13.60
2017,09,25,02,03,13.60
2017,09,25,02,04,13.60
2017,09,25,02,05,13.60
2017,09,25,02,06,13.60
2017,09,25,02,07,13.60
2017,09,25,02,08,13.60
2017,09,25,02,09,13.60
2017,09,25,02,10,13.60
2017,09,25,02,11,13.70
2017,09,25,02,12,13.70
2017,09,25,02,13,13.70
2017,09,25,02,14,13.70
2017,09,25,02,15,13.70
2017,09,25,02,16,13.70
2017,09,25,02,17,13.70
2017,09,25,02,18,13.70
2017,09,25,02,19,13.70
2017,09,25,02,20,13.70
2017,09,25,02,21,13.70
2017,09,25,02,22,13.70
2017,09,25,02,23,13.70
2017,09,25,02,24,13.70
2017,09,25,02,25,13.70
2017,09,25,02,26,13.70
2017,09,25,02,27,13.70
2017,09,25,02,28,13.70
2017,09,25,02,29,13.70
2017,09,25,02,30,13.70
2017,09,25,02,31,13.70
2017,09,25,02,32,13.70
2017,09,25,02,33,13.70
2017,09,25,02,34,13.70
2017,09,25,02,35,13.70
2017,09,25,02,36,13.70
2017,09,25,02,37,13.70
2017,09,25,02,38,13.70
2017,09,25,02,39,13.80
2017,09,25,02,40,13.80
2017,09,25,02,41,13.80
2017,09,25,02,42,13.80
2017,09,25,02,43,13.80
2017,09,25,02,44,13.80
2017,09,25,02,45,13.80
2017,09,25,02,46,13.80
2017,09,25,02,47,13.70
2017,09,25,02,48,13.70
2017,09,25,02,49,13.70
2017,09,25,02,50,13.70
2017,09,25,02,51,13.70
2017,09,25,02,52,13.70
2017,09,25,02,53,13.70
2017,09,25,02,54,13.70
2017,09,25,02,55,13.70
2017,09,25,02,56,13.70
2017,09,25,02,57,13.70
2017,09,25,02,58,13.70
2017,09,25,02,59,13.70
2017,09,25,03,00,13.70
2017,09,25,03,01,13.70
2017,09,25,03,02,13.70
2017,09,25,03,03,13.70
2017,09,25,03,04,13.70
2017,09,25,03,05,13.70
2017,09,25,03,06,13.70
2017,09,25,03,07,13.70
2017,09,25,03,08,13.70
2017,09,25,03,09,13.80
2017,09,25,03,10,13.80
2017,09,25,03,11,13.80
2017,09,25,03,12,13.80
2017,09,25,03,13,13.80
2017,09,25,03,14,13.80
2017,09,25,03,15,13.80
2017,09,25,03,16,13.80
2017,09,25,03,17,13.80
2017,09,25,03,18,13.80
2017,09,25,03,19,13.80
2017,09,25,03,20,13.80
2017,09,25,03,21,13.80
2017,09,25,03,22,13.80
2017,09,25,03,23,13.80
2017,09,25,03,24,13.80
2017,09,25,03,25,13.80
2017,09,25,03,26,13.80
2017,09,25,03,27,13.80
2017,09,25,03,28,13.80
2017,09,25,03,29,13.80
2017,09,25,03,30,13.80
2017,09,25,03,31,13.80
2017,09,25,03,32,13.80
2017,09,25,03,33,13.80
2017,09,25,03,34,13.80
2017,09,25,03,35,13.80
2017,09,25,03,36,13.80
2017,09,25,03,37,13.80
2017,09,25,03,38,13.80
2017,09,25,03,39,13.70
2017,09,25,03,40,13.70
2017,09,25,03,41,13.70
2017,09,25,03,42,13.70
2017,09,25,03,43,13.70
2017,09,25,03,44,13.70
2017,09,25,03,45,13.70
2017,09,25,03,46,13.70
2017,09,25,03,47,13.70
2017,09,25,03,48,13.80
2017,09,25,03,49,13.80
2017,09,25,03,50,13.80
2017,09,25,03,51,13.80
2017,09,25,03,52,13.80
2017,09,25,03,53,13.80
2017,09,25,03,54,13.80
2017,09,25,03,55,13.80
2017,09,25,03,56,13.80
2017,09,25,03,57,13.80
2017,09,25,03,58,13.80
2017,09,25,03,59,13.80
2017,09,25,04,00,13.80
2017,09,25,04,01,13.80
2017,09,25,04,02,13.80
2017,09,25,04,03,13.80
2017,09,25,04,04,13.80
2017,09,25,04,05,13.80
2017,09,25,04,06,13.80
2017,09,25,04,07,13.80
2017,09,25,04,08,13.80
2017,09,25,04,09,13.80
2017,09,25,04,10,13.80
2017,09,25,04,11,13.80
2017,09,25,04,12,13.80
2017,09,25,04,13,13.80
2017,09,25,04,14,13.80
2017,09,25,04,15,13.80
2017,09,25,04,16,13.80
2017,09,25,04,17,13.80
2017,09,25,04,18,13.70
2017,09,25,04,19,13.70
2017,09,25,04,20,13.70
2017,09,25,04,21,13.70
2017,09,25,04,22,13.70
2017,09,25,04,23,13.80
2017,09,25,04,24,13.80
2017,09,25,04,25,13.80
2017,09,25,04,26,13.80
2017,09,25,04,27,13.80
2017,09,25,04,28,13.70
2017,09,25,04,29,13.70
2017,09,25,04,30,13.70
2017,09,25,04,31,13.70
2017,09,25,04,32,13.70
2017,09,25,04,33,13.70
2017,09,25,04,34,13.70
2017,09,25,04,35,13.70
2017,09,25,04,36,13.70
2017,09,25,04,37,13.70
2017,09,25,04,38,13.70
2017,09,25,04,39,13.70
2017,09,25,04,40,13.70
2017,09,25,04,41,13.70
2017,09,25,04,42,13.70
2017,09,25,04,43,13.70
2017,09,25,04,44,13.70
2017,09,25,04,45,13.70
2017,09,25,04,46,13.70
2017,09,25,04,47,13.70
2017,09,25,04,48,13.70
2017,09,25,04,49,13.70
2017,09,25,04,50,13.70
2017,09,25,04,51,13.70
2017,09,25,04,52,13.70
2017,09,25,04,53,13.70
2017,09,25,04,54,13.70
2017,09,25,04,55,13.70
2017,09,25,04,56,13.70
2017,09,25,04,57,13.70
2017,09,25,04,58,13.70
2017,09,25,04,59,13.70
2017,09,25,05,00,13.70
2017,09,25,05,01,13.70
2017,09,25,05,02,13.70
2017,09,25,05,03,13.70
2017,09,25,05,04,13.70
2017,09,25,05,05,13.70
2017,09,25,05,06,13.70
2017,09,25,05,07,13.70
2017,09,25,05,08,13.70
2017,09,25,05,09,13.70
2017,09,25,05,10,13.80
2017,09,25,05,11,13.80
2017,09,25,05,12,13.80
2017,09,25,05,13,13.80
2017,09,25,05,14,13.80
2017,09,25,05,15,13.80
2017,09,25,05,16,13.80
2017,09,25,05,17,13.80
2017,09,25,05,18,13.80
2017,09,25,05,19,13.70
2017,09,25,05,20,13.70
2017,09,25,05,21,13.70
2017,09,25,05,22,13.70
2017,09,25,05,23,13.80
2017,09,25,05,24,13.80
2017,09,25,05,25,13.80
2017,09,25,05,26,13.80
2017,09,25,05,27,13.80
2017,09,25,05,28,13.80
2017,09,25,05,29,13.80
2017,09,25,05,30,13.80
2017,09,25,05,31,13.80
2017,09,25,05,32,13.80
2017,09,25,05,33,13.80
2017,09,25,05,34,13.80
2017,09,25,05,35,13.80
2017,09,25,05,36,13.80
2017,09,25,05,37,13.80
2017,09,25,05,38,13.80
2017,09,25,05,39,13.80
2017,09,25,05,40,13.80
2017,09,25,05,41,13.80
2017,09,25,05,42,13.80
2017,09,25,05,43,13.80
2017,09,25,05,44,13.80
2017,09,25,05,45,13.80
2017,09,25,05,46,13.80
2017,09,25,05,47,13.80
2017,09,25,05,48,13.80
2017,09,25,05,49,13.80
2017,09,25,05,50,13.80
2017,09,25,05,51,13.80
2017,09,25,05,52,13.80
2017,09,25,05,53,13.80
2017,09,25,05,54,13.80
2017,09,25,05,55,13.80
2017,09,25,05,56,13.80
2017,09,25,05,57,13.80
2017,09,25,05,58,13.80
2017,09,25,05,59,13.80
2017,09,25,06,00,13.80
2017,09,25,06,01,13.80
2017,09,25,06,02,13.80
2017,09,25,06,03,13.80
2017,09,25,06,04,13.80
2017,09,25,06,05,13.80
2017,09,25,06,06,13.70
2017,09,25,06,07,13.70
2017,09,25,06,08,13.70
2017,09,25,06,09,13.70
2017,09,25,06,10,13.70
2017,09,25,06,11,13.70
2017,09,25,06,12,13.70
2017,09,25,06,13,13.70
2017,09,25,06,14,13.70
2017,09,25,06,15,13.70
2017,09,25,06,16,13.70
2017,09,25,06,17,13.70
2017,09,25,06,18,13.70
2017,09,25,06,19,13.70
2017,09,25,06,20,13.80
2017,09,25,06,21,13.80
2017,09,25,06,22,13.80
2017,09,25,06,23,13.80
2017,09,25,06,24,13.80
2017,09,25,06,25,13.80
2017,09,25,06,26,13.80
2017,09,25,06,27,13.80
2017,09,25,06,28,13.80
2017,09,25,06,29,13.80
2017,09,25,06,30,13.80
2017,09,25,06,31,13.80
2017,09,25,06,32,13.80
2017,09,25,06,33,13.80
2017,09,25,06,34,13.80
2017,09,25,06,35,13.80
2017,09,25,06,36,13.80
2017,09,25,06,37,13.80
2017,09,25,06,38,13.80
2017,09,25,06,39,13.80
2017,09,25,06,40,13.80
2017,09,25,06,41,13.80
2017,09,25,06,42,13.80
2017,09,25,06,43,13.80
2017,09,25,06,44,13.80
2017,09,25,06,45,13.70
2017,09,25,06,46,13.70
2017,09,25,06,47,13.70
2017,09,25,06,48,13.70
2017,09,25,06,49,13.70
2017,09,25,06,50,13.70
2017,09,25,06,51,13.70
2017,09,25,06,52,13.70
2017,09,25,06,53,13.70
2017,09,25,06,54,13.70
2017,09,25,06,55,13.70
2017,09,25,06,56,13.70
2017,09,25,06,57,13.70
2017,09,25,06,58,13.70
2017,09,25,06,59,13.70
2017,09,25,07,00,13.70
2017,09,25,07,01,13.70
2017,09,25,07,02,13.70
2017,09,25,07,03,13.70
2017,09,25,07,04,13.70
2017,09,25,07,05,13.70
2017,09,25,07,06,13.80
2017,09,25,07,07,13.80
2017,09,25,07,08,13.80
2017,09,25,07,09,13.80
2017,09,25,07,10,13.80
2017,09,25,07,11,13.80
2017,09,25,07,12,13.80
2017,09,25,07,13,13.80
2017,09,25,07,14,13.80
2017,09,25,07,15,13.70
2017,09,25,07,16,13.70
2017,09,25,07,17,13.70
2017,09,25,07,18,13.70
2017,09,25,07,19,13.70
2017,09,25,07,20,13.70
2017,09,25,07,21,13.70
2017,09,25,07,22,13.70
2017,09,25,07,23,13.70
2017,09,25,07,24,13.70
2017,09,25,07,25,13.70
2017,09,25,07,26,13.70
2017,09,25,07,27,13.70
2017,09,25,07,28,13.70
2017,09,25,07,29,13.70
2017,09,25,07,30,13.70
2017,09,25,07,31,13.70
2017,09,25,07,32,13.70
2017,09,25,07,33,13.70
2017,09,25,07,34,13.70
2017,09,25,07,35,13.70
2017,09,25,07,36,13.70
2017,09,25,07,37,13.70
2017,09,25,07,38,13.70
2017,09,25,07,39,13.70
2017,09,25,07,40,13.70
2017,09,25,07,41,13.70
2017,09,25,07,42,13.70
2017,09,25,07,43,13.70
2017,09,25,07,44,13.70
2017,09,25,07,45,13.70
2017,09,25,07,46,13.70
2017,09,25,07,47,13.70
2017,09,25,07,48,13.70
2017,09,25,07,49,13.70
2017,09,25,07,50,13.80
2017,09,25,07,51,13.80
2017,09,25,07,52,13.80
2017,09,25,07,53,13.80
2017,09,25,07,54,13.80
2017,09,25,07,55,13.80
2017,09,25,07,56,13.80
2017,09,25,07,57,13.80
2017,09,25,07,58,13.80
2017,09,25,07,59,13.80
2017,09,25,08,00,13.80
2017,09,25,08,01,13.80
2017,09,25,08,02,13.80
2017,09,25,08,03,13.80
2017,09,25,08,04,13.80
2017,09,25,08,05,13.90
2017,09,25,08,06,13.90
2017,09,25,08,07,13.90
2017,09,25,08,08,13.90
2017,09,25,08,09,13.90
2017,09,25,08,10,14.00
2017,09,25,08,11,14.00
2017,09,25,08,12,14.00
2017,09,25,08,13,14.10
2017,09,25,08,14,14.10
2017,09,25,08,15,14.10
2017,09,25,08,16,14.10
2017,09,25,08,17,14.10
2017,09,25,08,18,14.10
2017,09,25,08,19,14.10
2017,09,25,08,20,14.10
2017,09,25,08,21,14.20
2017,09,25,08,22,14.20
2017,09,25,08,23,14.20
2017,09,25,08,24,14.20
2017,09,25,08,25,14.20
2017,09,25,08,26,14.20
2017,09,25,08,27,14.20
2017,09,25,08,28,14.20
2017,09,25,08,29,14.20
2017,09,25,08,30,14.20
2017,09,25,08,31,14.20
2017,09,25,08,32,14.20
2017,09,25,08,33,14.20
2017,09,25,08,34,14.20
2017,09,25,08,35,14.20
2017,09,25,08,36,14.20
2017,09,25,08,37,14.20
2017,09,25,08,38,14.20
2017,09,25,08,39,14.20
2017,09,25,08,40,14.20
2017,09,25,08,41,14.20
2017,09,25,08,42,14.20
2017,09,25,08,43,14.20
2017,09,25,08,44,14.20
2017,09,25,08,45,14.20
2017,09,25,08,46,14.20
2017,09,25,08,47,14.20
2017,09,25,08,48,14.20
2017,09,25,08,49,14.20
2017,09,25,08,50,14.20
2017,09,25,08,51,14.20
2017,09,25,08,52,14.20
2017,09,25,08,53,14.20
2017,09,25,08,54,14.20
2017,09,25,08,55,14.20
2017,09,25,08,56,14.20
2017,09,25,08,57,14.20
2017,09,25,08,58,14.20
2017,09,25,08,59,14.20
2017,09,25,09,00,14.20
2017,09,25,09,01,14.20
2017,09,25,09,02,14.20
2017,09,25,09,03,14.20
2017,09,25,09,04,14.20
2017,09,25,09,05,14.20
2017,09,25,09,06,14.20
2017,09,25,09,07,14.30
2017,09,25,09,08,14.30
2017,09,25,09,09,14.30
2017,09,25,09,10,14.30
2017,09,25,09,11,14.30
2017,09,25,09,12,14.30
2017,09,25,09,13,14.30
2017,09,25,09,14,14.30
2017,09,25,09,15,14.30
2017,09,25,09,16,14.30
2017,09,25,09,17,14.30
2017,09,25,09,18,14.30
2017,09,25,09,19,14.30
2017,09,25,09,20,14.30
2017,09,25,09,21,14.30
2017,09,25,09,22,14.30
2017,09,25,09,23,14.30
2017,09,25,09,24,14.30
2017,09,25,09,25,14.30
2017,09,25,09,26,14.30
2017,09,25,09,27,14.30
2017,09,25,09,28,14.30
2017,09,25,09,29,14.40
2017,09,25,09,30,14.40
2017,09,25,09,31,14.40
2017,09,25,09,32,14.40
2017,09,25,09,33,14.40
2017,09,25,09,34,14.40
2017,09,25,09,35,14.40
2017,09,25,09,36,14.40
2017,09,25,09,37,14.50
2017,09,25,09,38,14.50
2017,09,25,09,39,14.50
2017,09,25,09,40,14.50
2017,09,25,09,41,14.50
2017,09,25,09,42,14.50
2017,09,25,09,43,14.50
2017,09,25,09,44,14.50
2017,09,25,09,45,14.50
2017,09,25,09,46,14.50
2017,09,25,09,47,14.50
2017,09,25,09,48,14.50
2017,09,25,09,49,14.50
2017,09,25,09,50,14.60
2017,09,25,09,51,14.60
2017,09,25,09,52,14.60
2017,09,25,09,53,14.60
2017,09,25,09,54,14.60
2017,09,25,09,55,14.60
2017,09,25,09,56,14.70
2017,09,25,09,57,14.70
2017,09,25,09,58,14.80
2017,09,25,09,59,14.80
2017,09,25,10,00,14.90
2017,09,25,10,01,14.90
2017,09,25,10,02,14.90
2017,09,25,10,03,14.80
2017,09,25,10,04,14.80
2017,09,25,10,05,14.80
2017,09,25,10,06,14.80
2017,09,25,10,07,14.90
2017,09,25,10,08,14.90
2017,09,25,10,09,14.90
2017,09,25,10,10,14.90
2017,09,25,10,11,15.00
2017,09,25,10,12,15.00
2017,09,25,10,13,15.00
2017,09,25,10,14,15.00
2017,09,25,10,15,15.00
2017,09,25,10,16,15.00
2017,09,25,10,17,15.00
2017,09,25,10,18,15.00
2017,09,25,10,19,15.00
2017,09,25,10,20,15.00
2017,09,25,10,21,15.00
2017,09,25,10,22,14.90
2017,09,25,10,23,14.90
2017,09,25,10,24,14.90
2017,09,25,10,25,14.90
2017,09,25,10,26,14.90
2017,09,25,10,27,15.00
2017,09,25,10,28,15.00
2017,09,25,10,29,15.00
2017,09,25,10,30,15.00
2017,09,25,10,31,15.00
2017,09,25,10,32,15.00
2017,09,25,10,33,15.00
2017,09,25,10,34,15.00
2017,09,25,10,35,15.00
2017,09,25,10,36,15.00
2017,09,25,10,37,15.00
2017,09,25,10,38,15.00
2017,09,25,10,39,15.00
2017,09,25,10,40,15.00
2017,09,25,10,41,15.00
2017,09,25,10,42,15.00
2017,09,25,10,43,15.00
2017,09,25,10,44,15.00
2017,09,25,10,45,15.00
2017,09,25,10,46,15.00
2017,09,25,10,47,15.00
2017,09,25,10,48,15.00
2017,09,25,10,49,15.10
2017,09,25,10,50,15.00
2017,09,25,10,51,15.10
2017,09,25,10,52,15.20
2017,09,25,10,53,15.20
2017,09,25,10,54,15.20
2017,09,25,10,55,15.20
2017,09,25,10,56,15.30
2017,09,25,10,57,15.30
2017,09,25,10,58,15.30
2017,09,25,10,59,15.30
2017,09,25,11,00,15.30
2017,09,25,11,01,15.30
2017,09,25,11,02,15.30
2017,09,25,11,03,15.40
2017,09,25,11,04,15.30
2017,09,25,11,05,15.30
2017,09,25,11,06,15.30
2017,09,25,11,07,15.30
2017,09,25,11,08,15.40
2017,09,25,11,09,15.40
2017,09,25,11,10,15.40
2017,09,25,11,11,15.40
2017,09,25,11,12,15.40
2017,09,25,11,13,15.40
2017,09,25,11,14,15.40
2017,09,25,11,15,15.40
2017,09,25,11,16,15.40
2017,09,25,11,17,15.40
2017,09,25,11,18,15.40
2017,09,25,11,19,15.40
2017,09,25,11,20,15.50
2017,09,25,11,21,15.60
2017,09,25,11,22,15.60
2017,09,25,11,23,15.60
2017,09,25,11,24,15.60
2017,09,25,11,25,15.70
2017,09,25,11,26,15.70
2017,09,25,11,27,15.70
2017,09,25,11,28,15.70
2017,09,25,11,29,15.70
2017,09,25,11,30,15.70
2017,09,25,11,31,15.70
2017,09,25,11,32,15.70
2017,09,25,11,33,15.70
2017,09,25,11,34,15.70
2017,09,25,11,35,15.60
2017,09,25,11,36,15.70
2017,09,25,11,37,15.60
2017,09,25,11,38,15.70
2017,09,25,11,39,15.60
2017,09,25,11,40,15.60
2017,09,25,11,41,15.70
2017,09,25,11,42,15.70
2017,09,25,11,43,15.70
2017,09,25,11,44,15.70
2017,09,25,11,45,15.70
2017,09,25,11,46,15.70
2017,09,25,11,47,15.70
2017,09,25,11,48,15.70
2017,09,25,11,49,15.70
2017,09,25,11,50,15.70
2017,09,25,11,51,15.70
2017,09,25,11,52,15.80
2017,09,25,11,53,15.80
2017,09,25,11,54,15.70
2017,09,25,11,55,15.70
2017,09,25,11,56,15.70
2017,09,25,11,57,15.70
2017,09,25,11,58,15.70
2017,09,25,11,59,15.70
2017,09,25,12,00,15.70
2017,09,25,12,01,15.70
2017,09,25,12,02,15.70
2017,09,25,12,03,15.70
2017,09,25,12,04,15.70
2017,09,25,12,05,15.70
2017,09,25,12,06,15.70
2017,09,25,12,07,15.70
2017,09,25,12,08,15.70
2017,09,25,12,09,15.70
2017,09,25,12,10,15.70
2017,09,25,12,11,15.80
2017,09,25,12,12,15.80
2017,09,25,12,13,15.80
2017,09,25,12,14,15.80
2017,09,25,12,15,15.80
2017,09,25,12,16,15.80
2017,09,25,12,17,15.80
2017,09,25,12,18,15.80
2017,09,25,12,19,15.80
2017,09,25,12,20,15.80
2017,09,25,12,21,15.80
2017,09,25,12,22,15.80
2017,09,25,12,23,15.90
2017,09,25,12,24,15.90
2017,09,25,12,25,15.90
2017,09,25,12,26,15.90
2017,09,25,12,27,15.90
2017,09,25,12,28,15.90
2017,09,25,12,29,15.90
2017,09,25,12,30,15.90
2017,09,25,12,31,16.00
2017,09,25,12,32,16.00
2017,09,25,12,33,16.00
2017,09,25,12,34,15.90
2017,09,25,12,35,15.90
2017,09,25,12,36,15.90
2017,09,25,12,37,15.90
2017,09,25,12,38,15.90
2017,09,25,12,39,15.90
2017,09,25,12,40,15.90
2017,09,25,12,41,15.90
2017,09,25,12,42,15.90
2017,09,25,12,43,15.90
2017,09,25,12,44,16.00
2017,09,25,12,45,16.00
2017,09,25,12,46,16.10
2017,09,25,12,47,16.10
2017,09,25,12,48,16.10
2017,09,25,12,49,16.10
2017,09,25,12,50,16.10
2017,09,25,12,51,16.10
2017,09,25,12,52,16.10
2017,09,25,12,53,16.10
2017,09,25,12,54,16.10
2017,09,25,12,55,16.10
2017,09,25,12,56,16.10
2017,09,25,12,57,16.10
2017,09,25,12,58,16.10
2017,09,25,12,59,16.10
2017,09,25,13,00,16.10
2017,09,25,13,01,16.10
2017,09,25,13,02,16.10
2017,09,25,13,03,16.10
2017,09,25,13,04,16.00
2017,09,25,13,05,16.00
2017,09,25,13,06,16.10
2017,09,25,13,07,16.10
2017,09,25,13,08,16.10
2017,09,25,13,09,16.10
2017,09,25,13,10,16.10
2017,09,25,13,11,16.20
2017,09,25,13,12,16.10
2017,09,25,13,13,16.10
2017,09,25,13,14,16.10
2017,09,25,13,15,16.10
2017,09,25,13,16,16.10
2017,09,25,13,17,16.20
2017,09,25,13,18,16.20
2017,09,25,13,19,16.20
2017,09,25,13,20,16.10
2017,09,25,13,21,16.10
2017,09,25,13,22,16.10
2017,09,25,13,23,16.10
2017,09,25,13,24,16.10
2017,09,25,13,25,16.20
2017,09,25,13,26,16.20
2017,09,25,13,27,16.30
2017,09,25,13,28,16.30
2017,09,25,13,29,16.30
2017,09,25,13,30,16.30
2017,09,25,13,31,16.20
2017,09,25,13,32,16.20
2017,09,25,13,33,16.20
2017,09,25,13,34,16.20
2017,09,25,13,35,16.30
2017,09,25,13,36,16.40
2017,09,25,13,37,16.30
2017,09,25,13,38,16.30
2017,09,25,13,39,16.30
2017,09,25,13,40,16.30
2017,09,25,13,41,16.20
2017,09,25,13,42,16.20
2017,09,25,13,43,16.20
2017,09,25,13,44,16.20
2017,09,25,13,45,16.20
2017,09,25,13,46,16.10
2017,09,25,13,47,16.10
2017,09,25,13,48,16.20
2017,09,25,13,49,16.20
2017,09,25,13,50,16.20
2017,09,25,13,51,16.20
2017,09,25,13,52,16.20
2017,09,25,13,53,16.10
2017,09,25,13,54,16.10
2017,09,25,13,55,16.10
2017,09,25,13,56,16.10
2017,09,25,13,57,16.20
2017,09,25,13,58,16.20
2017,09,25,13,59,16.20
2017,09,25,14,00,16.20
2017,09,25,14,01,16.20
2017,09,25,14,02,16.20
2017,09,25,14,03,16.20
2017,09,25,14,04,16.20
2017,09,25,14,05,16.20
2017,09,25,14,06,16.20
2017,09,25,14,07,16.20
2017,09,25,14,08,16.20
2017,09,25,14,09,16.20
2017,09,25,14,10,16.20
2017,09,25,14,11,16.20
2017,09,25,14,12,16.20
2017,09,25,14,13,16.20
2017,09,25,14,14,16.20
2017,09,25,14,15,16.20
2017,09,25,14,16,16.20
2017,09,25,14,17,16.20
2017,09,25,14,18,16.20
2017,09,25,14,19,16.30
2017,09,25,14,20,16.20
2017,09,25,14,21,16.20
2017,09,25,14,22,16.20
2017,09,25,14,23,16.20
2017,09,25,14,24,16.20
2017,09,25,14,25,16.10
2017,09,25,14,26,16.10
2017,09,25,14,27,16.10
2017,09,25,14,28,16.10
2017,09,25,14,29,16.10
2017,09,25,14,30,16.20
2017,09,25,14,31,16.10
2017,09,25,14,32,16.10
2017,09,25,14,33,16.10
2017,09,25,14,34,16.10
2017,09,25,14,35,16.10
2017,09,25,14,36,16.20
2017,09,25,14,37,16.20
2017,09,25,14,38,16.20
2017,09,25,14,39,16.20
2017,09,25,14,40,16.20
2017,09,25,14,41,16.30
2017,09,25,14,42,16.30
2017,09,25,14,43,16.30
2017,09,25,14,44,16.30
2017,09,25,14,45,16.30
2017,09,25,14,46,16.40
2017,09,25,14,47,16.40
2017,09,25,14,48,16.30
2017,09,25,14,49,16.30
2017,09,25,14,50,16.30
2017,09,25,14,51,16.30
2017,09,25,14,52,16.30
2017,09,25,14,53,16.30
2017,09,25,14,54,16.30
2017,09,25,14,55,16.30
2017,09,25,14,56,16.30
2017,09,25,14,57,16.40
2017,09,25,14,58,16.40
2017,09,25,14,59,16.40
2017,09,25,15,00,16.40
2017,09,25,15,01,16.40
2017,09,25,15,02,16.40
2017,09,25,15,03,16.30
2017,09,25,15,04,16.40
2017,09,25,15,05,16.40
2017,09,25,15,06,16.40
2017,09,25,15,07,16.30
2017,09,25,15,08,16.30
2017,09,25,15,09,16.30
2017,09,25,15,10,16.30
2017,09,25,15,11,16.30
2017,09,25,15,12,16.30
2017,09,25,15,13,16.30
2017,09,25,15,14,16.40
2017,09,25,15,15,16.40
2017,09,25,15,16,16.40
2017,09,25,15,17,16.40
2017,09,25,15,18,16.40
2017,09,25,15,19,16.40
2017,09,25,15,20,16.40
2017,09,25,15,21,16.40
2017,09,25,15,22,16.40
2017,09,25,15,23,16.40
2017,09,25,15,24,16.40
2017,09,25,15,25,16.40
2017,09,25,15,26,16.50
2017,09,25,15,27,16.60
2017,09,25,15,28,16.60
2017,09,25,15,29,16.60
2017,09,25,15,30,16.60
2017,09,25,15,31,16.70
2017,09,25,15,32,16.70
2017,09,25,15,33,16.60
2017,09,25,15,34,16.60
2017,09,25,15,35,16.60
2017,09,25,15,36,16.50
2017,09,25,15,37,16.50
2017,09,25,15,38,16.50
2017,09,25,15,39,16.60
2017,09,25,15,40,16.60
2017,09,25,15,41,16.60
2017,09,25,15,42,16.60
2017,09,25,15,43,16.70
2017,09,25,15,44,16.70
2017,09,25,15,45,16.60
2017,09,25,15,46,16.60
2017,09,25,15,47,16.60
2017,09,25,15,48,16.60
2017,09,25,15,49,16.70
2017,09,25,15,50,16.60
2017,09,25,15,51,16.60
2017,09,25,15,52,16.70
2017,09,25,15,53,16.70
2017,09,25,15,54,16.70
2017,09,25,15,55,16.70
2017,09,25,15,56,16.60
2017,09,25,15,57,16.60
2017,09,25,15,58,16.60
2017,09,25,15,59,16.60
2017,09,25,16,00,16.70
2017,09,25,16,01,16.60
2017,09,25,16,02,16.60
2017,09,25,16,03,16.60
2017,09,25,16,04,16.60
2017,09,25,16,05,16.60
2017,09,25,16,06,16.60
2017,09,25,16,07,16.60
2017,09,25,16,08,16.60
2017,09,25,16,09,16.50
2017,09,25,16,10,16.60
2017,09,25,16,11,16.60
2017,09,25,16,12,16.60
2017,09,25,16,13,16.60
2017,09,25,16,14,16.60
2017,09,25,16,15,16.60
2017,09,25,16,16,16.60
2017,09,25,16,17,16.60
2017,09,25,16,18,16.70
2017,09,25,16,19,16.70
2017,09,25,16,20,16.70
2017,09,25,16,21,16.70
2017,09,25,16,22,16.70
2017,09,25,16,23,16.60
2017,09,25,16,24,16.60
2017,09,25,16,25,16.60
2017,09,25,16,26,16.50
2017,09,25,16,27,16.50
2017,09,25,16,28,16.50
2017,09,25,16,29,16.60
2017,09,25,16,30,16.60
2017,09,25,16,31,16.60
2017,09,25,16,32,16.60
2017,09,25,16,33,16.50
2017,09,25,16,34,16.50
2017,09,25,16,35,16.50
2017,09,25,16,36,16.40
2017,09,25,16,37,16.40
2017,09,25,16,38,16.40
2017,09,25,16,39,16.50
2017,09,25,16,40,16.50
2017,09,25,16,41,16.50
2017,09,25,16,42,16.50
2017,09,25,16,43,16.50
2017,09,25,16,44,16.50
2017,09,25,16,45,16.60
2017,09,25,16,46,16.60
2017,09,25,16,47,16.60
2017,09,25,16,48,16.60
2017,09,25,16,49,16.60
2017,09,25,16,50,16.60
2017,09,25,16,51,16.60
2017,09,25,16,52,16.70
2017,09,25,16,53,16.70
2017,09,25,16,54,16.60
2017,09,25,16,55,16.60
2017,09,25,16,56,16.70
2017,09,25,16,57,16.70
2017,09,25,16,58,16.70
2017,09,25,16,59,16.70
2017,09,25,17,00,16.70
2017,09,25,17,01,16.70
2017,09,25,17,02,16.70
2017,09,25,17,03,16.70
2017,09,25,17,04,16.60
2017,09,25,17,05,16.60
2017,09,25,17,06,16.60
2017,09,25,17,07,16.60
2017,09,25,17,08,16.60
2017,09,25,17,09,16.60
2017,09,25,17,10,16.60
2017,09,25,17,11,16.60
2017,09,25,17,12,16.60
2017,09,25,17,13,16.60
2017,09,25,17,14,16.60
2017,09,25,17,15,16.70
2017,09,25,17,16,16.70
2017,09,25,17,17,16.70
2017,09,25,17,18,16.70
2017,09,25,17,19,16.60